[Date Prev][Date Next][Thread Prev][Thread Next] - [Date Index][Thread Index][Author Index]

2 Line ISS Keps 7-24



ISS
1 25544U 98067A   02205.13435630  .00016536  00000-0  21154-3 0  6921
2 25544  51.6369 227.4623 0008739  32.6175  34.8244 15.59322120209791


----
Via the sarex mailing list at AMSAT.ORG courtesy of AMSAT-NA.
To unsubscribe, send "unsubscribe sarex" to Majordomo@amsat.org



AMSAT Top AMSAT Home